Wind_Gust
8 9 9 11 13 13 15 17 18 22 22 25 26 17 18 14 12 13 12 11 15 14 11 10 12 13 16 13 15 18 23 17 21 18 14 13 12 15 16 21 22 24 26 26 26 27 25 20 20 23 23 24 25 25 24 25 25 25 25 24 24 23 23 22 22 21 20 21 21 21 22 22 21 19 18 17 17 17 17 19 20 21 21 20 22 23 23 24 24 25 26 25 24 24 24 25 23
9 8 9 10 13 15 16 10 24 15 20 24 23 14 15 15 15 12 12 12 15 13 12 12 13 10 10 13 12 18 22 23 20 22 17 16 19 17 20 22 22 25 25 26 25 26 25 25 19 22 22 24 24 25 25 25 24 24 25 24 23 23 23 22 21 20 19 20 21 21 21 22 21 20 16 15 15 15 16 16 20 20 21 22 22 23 23 24 24 24 25 25 24 23 23 23 21
9 11 13 14 15 18 13 18 22 19 23 23 20 19 17 16 14 14 14 14 12 9 10 9 10 10 11 14 16 15 16 15 19 20 21 15 20 18 19 22 23 24 25 25 25 25 25 24 19 20 22 24 24 25 25 25 25 24 24 24 23 22 22 22 21 21 20 20 21 21 21 21 20 19 17 14 14 15 15 16 19 20 21 22 22 23 24 23 23 23 23 23 23 23 22 21 19
9 9 14 14 16 15 19 17 23 20 21 20 16 17 15 14 15 15 12 13 15 13 11 12 15 11 16 14 14 19 19 16 16 17 22 17 16 20 22 22 21 25 24 24 24 25 24 25 20 20 22 23 24 25 25 26 25 24 23 22 22 22 22 21 21 21 21 20 21 20 20 22 20 18 16 13 15 16 16 16 17 20 20 21 22 21 21 21 21 21 22 22 21 20 18 17 18
12 11 13 16 19 20 20 18 18 20 23 15 15 19 14 14 17 11 12 13 15 16 14 10 13 11 12 16 14 14 19 20 16 12 18 15 13 19 22 21 22 25 24 24 24 24 25 23 20 20 21 23 23 24 23 23 23 23 22 22 22 22 22 21 21 21 22 22 20 20 21 21 21 19 15 15 15 17 18 16 16 18 19 18 17 17 16 16 19 19 20 19 19 18 16 16 17
11 13 12 17 17 20 19 17 21 22 19 14 14 17 15 14 10 13 14 15 11 12 12 13 13 14 15 18 19 16 14 11 14 14 17 19 17 19 22 20 22 25 24 22 22 22 27 23 21 20 20 22 23 24 24 23 23 22 22 22 22 22 21 21 21 22 22 23 21 22 22 21 21 19 15 17 18 19 19 18 17 17 18 19 19 19 19 18 18 18 17 17 18 17 17 16 17
15 17 17 17 15 18 21 20 18 17 16 14 14 15 14 12 15 14 15 15 11 10 10 15 11 11 18 22 24 22 15 11 12 12 8 19 18 19 20 21 22 23 22 22 22 24 28 19 18 19 20 23 23 24 24 23 23 23 23 22 22 23 22 21 20 20 22 21 21 22 22 21 22 18 18 19 19 18 18 17 17 15 14 16 17 18 19 18 17 17 16 16 16 17 17 17 18
10 19 15 20 17 19 21 19 17 13 15 13 11 15 13 13 14 15 16 12 14 14 14 12 14 15 17 12 15 16 15 16 13 12 18 20 19 19 19 22 23 23 23 21 21 24 24 17 18 18 21 21 24 25 24 24 23 22 22 22 22 22 23 22 21 19 18 20 22 22 23 21 21 18 19 19 19 18 17 17 17 16 14 14 16 17 17 17 15 16 16 15 16 18 18 18 19
17 18 11 19 19 17 18 19 17 11 15 13 17 18 16 17 17 17 18 13 11 12 13 17 14 20 22 17 19 18 18 14 13 13 16 18 19 19 20 21 23 23 21 22 24 26 25 17 17 18 20 22 22 24 23 24 22 22 23 22 21 21 20 22 21 19 18 19 20 21 21 20 20 18 17 18 18 17 17 18 17 16 15 14 14 15 15 16 16 16 15 15 16 18 18 18 19
17 19 17 21 14 18 19 17 17 15 15 10 16 19 17 15 16 16 16 14 13 10 15 13 12 11 22 18 23 15 14 11 14 16 15 17 18 17 18 19 21 22 21 23 24 26 24 21 16 17 17 20 21 21 20 20 21 20 21 19 18 19 19 20 18 17 18 18 19 19 20 19 18 18 18 18 18 17 16 17 16 16 15 14 13 14 15 15 15 15 14 15 16 17 17 17 18
19 19 13 19 19 19 18 16 16 14 14 11 17 17 14 13 15 16 15 12 10 14 17 14 18 15 17 19 20 13 10 11 13 15 15 17 17 17 19 20 21 20 23 21 22 24 27 25 20 16 17 17 17 18 18 18 18 18 18 17 17 18 19 18 19 17 16 19 19 19 20 17 18 18 18 17 17 17 17 16 16 16 15 14 12 13 14 15 15 14 13 13 14 14 15 17 17
18 19 18 22 19 17 12 14 11 14 14 13 12 13 10 13 13 16 15 18 15 15 17 21 19 17 17 20 17 14 11 12 14 14 14 16 18 17 18 21 18 19 21 22 23 25 24 25 25 21 16 16 17 17 17 18 17 17 18 18 18 18 18 18 18 19 20 19 18 18 18 18 19 17 16 18 18 17 16 16 15 15 16 15 13 13 14 14 13 12 11 12 13 14 15 16 17
21 13 19 19 18 16 9 14 12 12 15 14 15 19 15 11 14 12 14 13 16 18 19 13 10 15 17 15 19 14 13 12 13 15 16 17 17 18 17 20 19 19 20 20 23 24 24 24 25 25 22 20 16 16 17 17 17 17 18 18 18 18 19 18 19 18 19 20 19 19 19 18 18 17 17 18 18 18 17 16 15 15 16 16 15 13 13 13 12 12 11 12 13 14 15 16 16
21 15 14 20 11 14 15 13 11 19 18 14 15 18 12 11 10 12 17 17 19 16 15 11 10 11 18 21 18 17 15 13 14 14 18 17 17 17 18 19 19 19 19 20 21 24 24 22 24 24 25 24 24 20 16 17 18 18 19 18 18 19 19 19 20 18 18 17 18 17 18 18 18 18 16 17 18 16 15 15 16 16 17 17 15 13 13 12 12 11 10 12 13 14 15 16 16
20 12 17 19 14 16 14 18 17 17 19 13 18 18 14 12 8 9 10 16 17 13 15 12 13 18 15 16 20 19 20 16 17 18 19 18 18 17 16 19 18 18 18 18 21 23 23 22 24 25 23 24 24 23 24 23 18 18 19 19 19 18 18 18 18 18 19 20 20 19 18 19 19 18 17 18 17 15 16 15 15 14 14 16 16 14 12 11 10 9 11 12 13 15 16 16 16
14 17 18 18 19 17 19 18 11 13 21 13 17 17 13 13 11 9 10 16 18 11 12 17 14 16 14 17 19 24 23 20 19 19 21 20 18 17 18 18 18 19 18 20 20 20 21 21 21 24 24 24 23 22 22 25 22 20 19 19 20 18 18 18 18 19 20 21 20 18 17 21 19 20 18 20 16 14 13 14 16 15 14 15 15 13 12 10 9 8 10 13 14 16 16 16 16
13 18 17 19 18 18 17 17 21 16 19 15 16 21 18 13 10 11 10 11 18 14 13 16 16 13 17 18 19 24 23 20 19 21 20 20 20 19 18 18 19 20 18 18 20 20 20 21 22 22 21 23 22 22 23 23 25 22 19 18 18 17 17 19 21 21 19 19 20 17 15 21 20 20 22 21 15 18 11 14 16 17 14 14 15 13 12 10 8 9 11 14 16 17 16 17 15
17 21 21 19 16 18 14 16 16 16 13 16 19 18 19 14 10 12 13 14 13 15 13 16 18 19 14 17 18 21 22 22 21 21 22 21 20 21 19 18 19 21 21 20 19 19 21 22 22 21 23 22 22 23 22 22 25 22 23 24 24 22 20 20 25 25 19 23 18 23 21 20 20 19 19 16 19 19 17 13 16 16 14 13 13 13 11 9 9 9 13 16 16 18 18 22 18
22 19 20 19 17 13 11 11 11 11 15 16 15 15 18 16 13 13 17 16 18 17 16 17 18 16 14 16 18 20 22 21 21 19 20 19 19 20 20 19 18 20 21 22 21 21 22 22 22 22 21 22 22 20 21 22 24 23 23 24 23 19 22 25 24 24 24 24 24 23 21 18 19 18 19 18 16 13 19 13 16 16 14 14 12 12 11 10 9 10 14 16 16 16 22 18 18
21 18 21 22 10 11 9 8 9 12 14 16 16 15 16 14 14 11 13 17 16 19 22 18 18 17 17 18 18 21 20 20 19 19 19 18 18 20 18 18 19 19 20 21 23 22 22 21 21 22 21 22 22 23 22 23 23 22 23 23 23 24 25 24 22 23 22 22 23 20 18 18 17 17 14 15 14 20 20 11 15 16 15 13 15 12 11 10 11 11 14 15 15 16 16 17 17
19 22 22 15 11 16 13 12 15 11 11 14 15 16 14 13 15 12 10 18 16 13 15 16 19 21 22 20 21 20 21 20 19 19 19 19 17 18 18 18 20 20 19 20 21 21 21 21 22 22 22 22 22 22 21 24 23 23 23 22 21 23 22 23 21 20 19 20 20 19 18 17 17 18 20 21 19 19 20 20 20 18 17 16 13 14 15 16 15 20 21 21 20 17 16 15 14
16 23 20 12 11 15 11 11 9 10 10 13 14 17 14 16 12 10 15 16 19 15 13 16 15 26 26 25 22 21 21 20 20 20 19 20 20 19 16 17 16 17 17 19 21 21 21 21 21 21 22 22 23 23 24 23 24 22 22 22 22 22 21 19 18 19 19 19 18 17 17 16 17 17 18 19 19 18 19 19 19 17 16 15 13 14 14 17 18 19 21 21 17 14 14 14 13
24 22 18 18 16 16 12 10 8 9 11 14 16 13 16 12 11 10 13 13 19 18 14 14 18 23 23 23 23 21 21 20 20 20 19 19 19 18 18 18 20 21 20 20 19 19 20 19 20 21 22 22 22 20 20 21 21 21 21 21 21 21 20 18 17 17 17 18 17 17 17 17 17 17 19 18 17 18 17 18 17 18 17 16 14 14 13 15 16 17 17 16 15 15 15 14 14
25 21 17 19 16 18 13 14 10 14 12 15 15 13 15 12 10 10 13 13 13 13 12 16 21 23 23 24 20 20 20 19 18 16 17 17 19 19 19 20 18 17 19 18 19 19 19 20 19 19 19 19 19 19 19 20 18 19 19 19 19 18 17 17 17 17 16 18 18 19 18 17 18 17 18 17 17 17 17 16 17 17 18 18 17 14 15 14 15 15 15 16 16 17 17 15 14
25 28 15 14 15 14 14 13 14 14 13 15 13 14 11 11 10 12 13 13 12 13 14 18 20 22 21 20 21 19 19 17 16 16 15 15 16 16 17 17 16 18 18 17 18 19 19 19 19 19 18 17 17 18 18 18 17 17 18 17 18 15 18 16 15 17 17 17 18 18 18 18 17 16 17 17 17 17 16 16 16 17 16 17 17 14 14 13 14 16 16 17 16 16 16 14 13
26 23 16 16 16 14 13 12 16 14 13 11 14 14 10 9 9 15 15 12 12 13 15 18 20 20 20 19 19 19 19 18 17 17 17 15 16 17 18 19 17 19 18 17 16 17 18 19 20 20 17 17 16 16 15 15 16 18 17 18 18 17 16 15 15 16 15 16 17 17 18 19 17 17 16 15 17 15 15 15 15 16 16 17 16 15 12 13 14 15 16 16 17 16 16 15 14
19 23 19 18 16 15 13 15 14 9 14 13 17 13 11 11 14 21 15 15 12 14 16 17 18 19 18 19 19 17 18 17 18 16 16 16 17 19 17 17 18 17 18 17 16 16 17 17 18 17 15 14 14 14 14 14 15 15 16 17 18 15 15 15 15 16 15 16 18 16 18 18 16 14 13 14 13 15 15 15 15 15 16 17 17 16 12 13 13 15 16 16 17 16 15 15 15
12 16 18 20 18 16 15 15 19 15 16 15 18 12 9 11 15 17 20 15 15 16 16 17 18 20 21 20 20 17 17 17 17 17 18 19 21 20 18 21 21 17 18 18 17 15 14 15 15 15 14 14 12 12 13 13 15 15 15 15 16 15 13 13 14 15 14 15 16 15 16 17 14 14 15 15 14 15 16 15 16 16 16 16 16 16 15 14 13 14 15 15 14 14 15 15 13
13 13 19 19 18 23 19 20 17 14 15 11 11 12 16 15 20 15 17 16 16 17 16 17 17 19 21 21 20 19 18 17 17 18 17 17 16 15 18 16 16 17 16 18 18 14 15 15 13 13 14 13 13 12 13 14 13 15 16 15 14 14 15 15 15 15 13 13 15 15 16 17 14 16 16 16 15 16 15 15 14 15 16 15 15 15 15 16 16 15 16 15 16 15 15 15 15
16 16 19 17 20 22 21 19 14 15 11 9 17 23 23 21 17 15 16 17 17 16 17 18 19 20 20 19 19 18 17 16 17 18 18 17 15 16 16 15 15 16 19 18 18 18 18 11 13 11 11 13 14 12 12 15 15 14 15 14 11 13 12 13 15 14 13 14 15 16 16 16 16 15 15 14 15 15 15 15 15 15 14 15 15 17 19 18 18 18 19 19 15 17 17 15 15
25 19 19 22 22 25 24 23 20 20 15 13 17 23 23 21 19 15 15 16 18 19 18 18 18 19 19 19 18 19 17 16 16 16 15 14 13 15 15 14 17 18 17 16 19 17 15 14 10 13 11 11 14 13 12 13 14 12 10 14 15 14 14 15 14 13 13 14 16 16 17 16 15 14 14 13 11 12 13 14 14 14 14 15 17 17 18 19 17 18 20 21 18 18 16 17 15
22 25 26 24 22 23 20 17 21 26 17 16 21 25 17 24 20 13 14 15 16 19 19 18 18 19 19 18 18 19 18 15 13 14 14 12 13 15 16 16 17 18 18 17 14 15 13 14 12 13 14 14 12 15 13 13 13 11 9 10 12 15 15 15 15 14 13 14 14 14 15 13 13 11 11 12 10 11 12 14 13 14 13 13 15 16 17 19 17 18 18 18 20 19 18 17 15
26 24 19 26 24 21 21 19 19 13 20 18 24 26 17 17 14 11 13 15 16 18 16 17 18 17 18 18 18 18 20 17 15 13 12 13 15 15 15 16 19 18 18 15 15 15 15 14 15 15 15 13 13 14 14 12 12 12 12 15 18 15 14 12 14 12 12 13 12 13 12 10 11 12 10 8 10 15 13 12 12 13 14 13 14 15 17 18 18 18 18 18 17 19 20 17 16
27 26 20 18 26 20 22 21 18 19 19 24 25 23 15 16 14 15 13 14 15 18 17 17 16 17 15 16 17 19 18 18 16 14 13 14 14 15 15 16 17 18 16 15 14 15 16 14 14 13 14 14 15 14 12 12 12 12 12 16 13 14 13 13 12 13 13 13 12 12 13 15 11 12 13 13 12 13 13 14 12 14 15 15 14 15 16 17 17 17 19 18 19 17 19 19 17
27 27 23 20 23 20 19 28 23 21 21 22 24 24 16 15 12 12 13 12 14 16 15 15 15 13 15 15 15 16 17 15 14 11 12 13 14 15 16 15 14 13 12 14 13 13 13 12 12 13 13 12 13 15 13 11 11 12 14 13 13 13 14 14 13 13 13 11 12 12 14 13 13 12 15 16 15 15 15 14 14 14 14 15 14 14 16 16 17 19 20 20 17 17 17 18 18
22 24 21 19 23 25 23 20 18 18 26 25 24 27 23 17 12 13 11 10 14 15 10 11 13 14 13 15 15 18 16 15 14 12 13 12 12 12 14 12 11 10 10 12 11 10 10 10 10 12 11 11 10 10 11 12 12 12 12 13 15 14 14 14 15 16 13 13 14 14 13 13 14 15 16 15 16 15 14 14 15 15 15 15 14 16 15 17 18 20 19 19 20 18 17 17 17
18 22 21 20 23 24 17 17 15 9 20 24 26 22 17 13 12 13 11 10 11 11 11 12 14 15 15 16 15 16 14 14 12 11 11 10 10 11 10 9 11 11 11 11 13 12 11 11 9 10 12 14 12 11 10 12 12 11 10 15 15 14 16 15 16 15 14 14 15 16 16 15 14 15 16 16 16 15 14 15 17 14 14 16 17 18 15 15 17 18 20 18 21 21 19 18 17
19 21 22 22 24 23 22 20 15 14 17 21 14 17 14 12 13 15 13 13 14 12 12 13 14 14 13 15 15 16 17 14 11 10 9 8 9 9 8 10 11 12 11 10 11 12 12 11 11 10 9 10 12 13 13 13 12 14 13 14 12 15 16 17 16 15 18 15 17 17 16 14 16 17 17 16 17 14 15 15 14 15 15 14 14 14 15 15 16 17 19 20 19 21 21 20 22
19 23 23 22 25 19 18 17 13 14 17 22 21 21 16 12 12 13 15 13 12 10 10 9 10 12 14 15 18 15 17 14 12 10 8 9 9 8 10 10 11 11 12 11 10 10 11 11 10 11 11 12 10 9 11 12 10 12 14 14 16 17 14 14 14 14 14 15 18 18 17 18 19 19 19 16 16 16 15 15 16 16 16 15 16 16 16 17 16 18 19 20 21 18 17 19 21
23 24 26 26 23 23 26 19 16 11 17 17 22 20 16 13 12 14 14 13 13 12 12 14 14 11 11 14 14 14 14 15 12 10 9 9 8 8 9 10 11 11 12 11 11 10 10 9 10 11 8 8 10 12 13 13 12 12 12 13 12 15 16 16 16 16 14 16 18 19 18 18 17 17 15 15 15 15 15 17 17 15 16 16 16 17 17 18 19 18 19 20 20 20 20 19 18
23 23 22 25 22 26 16 28 17 11 10 10 19 19 19 17 18 17 14 12 14 15 14 16 16 14 12 12 12 10 12 11 11 9 9 9 8 8 8 10 10 11 11 11 10 11 11 11 10 9 10 11 9 8 9 10 10 11 13 13 13 13 14 16 15 17 17 17 18 18 17 16 17 16 15 17 18 17 17 17 16 15 15 16 16 17 19 22 22 20 20 19 20 21 21 19 19
25 20 21 16 17 24 13 25 21 23 23 20 24 26 26 20 16 15 16 18 15 14 17 18 17 18 17 16 14 12 10 8 8 8 9 9 8 9 9 9 9 10 11 11 11 12 11 11 9 9 9 11 10 9 10 11 11 12 13 14 15 16 17 17 19 17 16 17 19 17 16 17 17 16 17 17 18 16 14 16 17 16 17 18 18 18 18 19 21 21 22 20 21 19 21 20 21
25 30 21 15 18 20 19 21 25 26 28 28 18 25 20 21 22 18 15 19 18 16 20 19 19 19 18 17 15 13 11 11 10 11 11 10 9 10 11 10 12 13 12 12 11 12 11 11 10 8 9 8 9 10 11 12 12 14 14 15 15 18 18 17 15 15 15 14 14 15 16 15 16 16 16 16 16 16 16 16 17 19 20 17 17 18 19 20 21 20 22 20 21 21 20 20 20
28 21 26 18 17 18 18 21 23 23 16 18 16 28 21 25 25 17 15 16 19 19 20 20 20 19 19 16 15 13 13 11 11 11 10 9 9 10 12 12 12 13 12 12 11 9 8 8 8 9 9 10 10 12 12 14 15 13 14 15 15 16 16 16 15 15 14 13 14 14 14 15 15 15 15 14 16 16 17 18 18 19 19 20 20 20 19 19 17 18 20 20 23 20 20 19 19
21 21 25 25 20 18 19 21 23 17 16 25 26 25 25 22 24 17 18 20 19 18 18 19 19 19 19 17 16 14 13 13 12 13 13 12 12 12 12 14 13 13 13 12 10 9 8 7 8 9 9 9 9 11 13 14 14 14 15 15 16 17 18 19 18 16 16 16 16 15 15 15 15 16 16 16 16 17 17 17 19 20 20 20 22 20 19 19 18 19 20 22 26 20 20 17 18
14 16 18 21 20 19 21 23 23 16 18 23 26 29 30 23 22 24 19 20 22 20 17 19 19 19 18 17 16 16 14 14 15 16 15 13 12 12 12 12 13 13 11 10 10 9 8 7 7 9 12 11 11 12 13 14 16 16 16 16 17 17 19 22 20 18 16 15 16 15 14 15 15 15 16 16 17 18 18 18 20 20 20 20 20 20 20 20 20 20 19 19 20 19 19 18 18
19 19 20 20 19 20 19 22 24 22 25 27 22 26 29 25 26 27 28 22 20 19 18 17 17 17 17 17 16 17 17 18 18 17 17 14 13 13 13 14 13 13 12 11 11 10 9 7 6 8 11 12 11 12 14 15 16 17 18 17 18 19 19 19 20 19 18 17 16 16 15 16 15 16 15 15 17 17 18 18 20 19 19 20 19 18 21 21 22 21 20 19 19 20 20 19 19
22 26 27 24 21 18 21 24 22 25 27 25 24 24 24 26 27 21 17 16 13 14 17 16 16 17 16 15 16 17 17 18 18 18 17 16 15 15 14 14 13 13 12 12 10 9 8 8 8 10 11 12 13 14 13 13 14 17 17 17 18 19 18 19 19 19 18 18 17 17 15 15 15 15 15 16 16 17 18 19 18 19 20 20 20 18 19 21 21 21 21 22 21 21 20 20 20
27 25 28 30 30 30 31 33 35 32 27 25 21 22 20 22 17 27 20 17 16 13 16 16 17 19 19 18 18 19 18 17 18 18 17 16 15 15 14 13 13 13 13 12 12 11 10 10 9 10 13 14 14 13 12 12 14 15 16 17 17 17 17 19 20 19 16 16 17 17 17 17 16 17 17 16 16 17 18 18 20 20 21 21 20 19 19 23 22 22 21 20 20 21 22 20 20
29 31 31 33 34 33 29 33 28 28 24 14 20 18 24 21 20 20 21 17 16 17 17 16 18 18 18 18 19 19 20 19 18 18 17 17 16 16 15 14 13 13 13 13 12 12 11 12 12 13 14 13 13 12 11 11 12 14 15 16 17 17 18 19 20 19 15 15 16 16 15 16 17 19 16 17 16 19 20 19 20 21 21 20 19 20 20 21 23 23 22 21 20 20 20 23 20
31 23 30 29 27 36 30 36 36 33 29 21 15 25 30 26 21 17 19 16 16 17 19 19 19 18 17 18 19 21 19 18 19 19 19 18 18 17 17 17 16 16 16 15 15 14 14 14 15 16 16 14 14 13 11 11 11 11 12 14 14 15 18 19 19 17 15 14 16 16 15 19 21 21 21 17 18 19 21 20 21 23 23 21 18 18 20 19 24 22 21 20 22 19 19 20 19
29 28 26 30 30 20 27 12 24 28 27 23 24 24 15 18 16 16 18 19 18 17 19 18 18 17 17 19 21 20 18 19 18 19 20 19 19 18 18 18 18 18 17 16 16 15 15 16 16 17 17 17 16 13 13 12 10 11 11 13 13 13 14 15 16 15 12 14 18 20 20 21 22 20 19 18 18 21 21 20 20 22 23 20 21 20 20 22 19 22 18 20 19 20 19 19 17
31 26 33 26 12 17 15 8 14 8 17 23 15 16 20 23 17 17 18 19 19 18 18 20 19 19 20 19 18 17 17 17 18 18 19 20 20 19 18 17 18 19 19 19 18 17 17 17 17 17 17 17 17 16 14 10 9 11 13 13 13 12 14 14 15 14 14 22 21 23 24 23 21 20 20 21 22 22 22 20 21 19 20 18 21 21 18 18 21 19 18 19 22 23 18 20 18
29 35 28 15 11 12 21 23 15 23 28 19 18 25 24 25 27 25 23 21 22 20 18 20 18 19 18 16 17 16 16 16 16 18 19 20 20 20 20 19 19 20 19 18 19 18 18 17 17 17 17 17 16 16 14 12 13 14 15 15 15 17 18 17 16 17 19 23 25 25 23 18 18 22 22 22 20 21 21 20 19 19 18 18 18 18 18 19 16 17 17 17 18 17 18 17 17
25 29 25 33 27 19 22 21 26 28 28 19 24 19 23 29 22 29 26 26 24 21 20 20 20 18 16 16 16 16 15 17 18 17 18 19 19 17 17 17 18 18 18 19 18 18 20 19 19 19 20 18 17 16 14 14 14 16 15 15 16 18 18 17 17 19 20 22 24 22 18 20 19 21 21 20 20 21 21 20 20 19 19 19 18 17 16 16 16 18 15 16 16 17 18 17 17
14 18 31 27 17 23 23 22 18 26 21 17 20 19 26 25 23 28 30 29 26 24 21 21 21 18 16 15 15 17 16 16 15 16 17 16 15 15 15 16 17 17 17 17 18 20 20 19 19 19 20 19 18 18 17 14 14 14 15 16 17 17 15 16 17 19 20 23 22 21 21 21 21 20 20 21 20 21 21 20 19 19 18 19 18 17 18 17 15 17 18 17 16 17 19 19 18
29 25 31 32 24 14 20 20 23 27 22 22 22 25 23 20 15 23 27 26 26 24 23 21 21 18 15 15 16 16 14 13 14 15 16 15 14 14 15 16 17 18 19 19 19 19 20 20 20 20 20 19 18 18 17 16 16 15 14 15 16 14 15 17 17 20 19 19 20 20 21 21 21 21 22 22 22 22 22 22 22 19 20 18 19 16 17 15 17 15 17 18 17 19 19 19 18
26 28 29 30 28 25 28 23 16 15 24 24 23 22 21 15 10 16 26 26 27 24 24 22 18 17 17 18 17 15 14 14 15 15 13 14 14 15 17 18 18 19 20 20 20 20 19 19 21 19 20 20 19 19 18 18 17 17 15 15 15 13 14 15 19 19 18 19 20 22 21 20 21 22 22 23 23 22 21 23 23 22 22 21 20 19 19 18 18 17 19 18 18 19 19 18 17
Wind_Speed
4 2 2 3 4 4 5 6 7 6 6 9 11 6 1 2 2 2 4 2 6 6 3 3 4 4 6 4 6 9 13 7 8 6 3 3 4 7 9 11 13 14 15 14 14 15 15 15 17 18 17 18 18 18 17 18 19 18 18 18 18 18 18 18 17 16 15 15 14 14 14 14 14 13 10 12 12 12 12 12 13 13 15 15 16 16 16 17 17 16 17 16 16 16 15 15 15
1 1 2 3 4 4 4 2 6 4 6 9 9 5 5 6 7 4 3 3 6 4 3 1 3 2 4 5 1 8 12 12 11 9 6 6 9 8 12 12 13 15 14 14 13 14 14 15 15 18 18 19 19 20 20 20 19 19 19 19 18 18 18 18 17 17 16 15 15 15 15 15 14 11 9 11 9 9 10 10 13 14 15 15 16 16 16 16 16 16 16 16 16 15 14 14 14
1 3 4 4 5 6 2 5 7 7 9 9 7 6 7 6 5 6 5 6 4 1 1 0 0 3 3 4 7 6 6 7 10 10 8 8 10 8 12 13 12 14 15 12 13 13 12 14 14 16 18 19 20 20 20 20 20 19 19 19 18 18 18 17 17 16 16 15 15 14 15 15 13 11 11 10 10 10 10 12 13 14 15 15 16 16 15 15 15 15 15 15 14 14 14 14 14
2 2 4 4 5 3 6 5 9 7 8 7 5 7 5 5 6 6 4 5 4 2 2 4 5 4 6 6 6 10 9 6 8 8 7 6 6 10 12 12 13 13 13 11 12 13 13 15 14 15 17 18 20 20 20 21 20 19 19 18 18 18 18 17 17 17 17 15 16 16 14 14 13 12 11 11 11 12 12 12 13 15 15 15 15 14 14 14 14 13 13 13 12 12 12 13 13
4 3 4 5 6 6 6 5 6 7 9 4 4 7 5 5 8 3 4 4 3 3 5 3 3 2 4 7 5 1 8 11 8 5 6 6 6 10 13 12 12 13 13 13 13 13 14 18 15 15 15 17 18 19 19 19 19 18 18 18 18 18 18 17 17 17 17 17 16 16 14 13 12 11 12 12 12 13 13 13 14 15 15 15 13 12 12 10 12 12 11 10 10 10 11 12 13
3 4 4 6 4 5 4 5 8 9 7 5 4 4 6 6 3 4 3 3 3 2 5 5 3 5 5 7 7 5 4 3 5 6 7 9 8 12 14 12 11 13 13 12 12 11 14 18 17 15 15 17 18 18 18 19 18 18 18 17 17 18 17 17 17 17 17 17 16 15 14 13 12 11 12 13 15 15 14 15 14 14 14 14 14 13 12 11 11 9 9 9 9 9 10 12 13
4 6 5 5 3 5 7 8 7 6 6 4 3 5 5 3 4 4 2 2 4 2 2 6 3 3 7 7 11 9 6 3 5 4 2 10 11 11 12 11 11 13 13 11 11 12 18 16 15 15 16 18 18 18 18 18 18 18 18 18 18 17 17 17 15 16 16 16 15 14 14 13 11 12 14 15 15 15 14 14 14 13 12 12 12 12 11 10 8 8 8 8 9 9 11 12 12
2 7 4 6 4 5 8 7 6 3 3 4 3 3 2 4 5 4 4 4 6 5 6 5 6 5 9 5 4 7 8 8 6 6 10 11 11 11 11 11 12 13 12 11 11 13 18 14 14 14 16 17 18 18 18 18 18 17 18 18 17 17 17 16 16 15 15 16 16 14 15 12 11 13 14 15 15 15 13 13 14 13 11 11 11 11 9 8 7 7 8 8 9 11 13 14 13
6 6 1 6 7 4 6 7 6 2 5 2 4 3 5 7 7 6 6 4 1 4 6 8 6 9 9 8 8 8 7 7 6 7 10 11 11 11 8 11 12 12 12 12 13 15 15 14 13 14 16 17 17 18 18 18 17 16 18 17 16 16 15 16 17 15 13 13 15 15 15 11 11 12 12 14 14 14 13 13 13 13 12 11 10 9 8 7 8 7 7 8 10 12 13 13 12
5 6 5 6 4 6 7 6 6 4 5 1 4 3 5 6 7 6 6 5 5 3 6 6 4 2 12 9 10 6 5 5 7 9 9 11 11 10 10 12 13 14 12 13 13 14 13 16 13 14 14 16 16 16 16 16 16 16 16 16 15 14 14 14 14 14 14 13 13 14 13 11 10 12 12 13 14 14 13 12 12 13 12 11 9 8 7 7 8 7 7 8 10 12 13 12 12
5 5 3 6 7 7 6 5 6 4 5 3 4 1 1 4 7 7 7 4 3 6 8 6 8 7 8 9 7 4 4 5 7 9 9 11 10 10 10 12 12 13 13 13 13 13 14 14 16 13 14 14 14 14 14 14 14 14 14 13 14 15 15 13 13 13 14 14 14 13 14 12 11 11 11 12 14 14 13 11 12 13 12 11 9 8 7 7 7 7 8 8 10 10 11 12 12
6 6 5 8 7 6 2 4 2 2 2 3 4 4 1 5 6 7 7 9 7 7 8 12 5 8 8 8 6 6 5 6 8 7 8 10 9 10 10 10 11 11 13 13 14 14 14 14 14 15 13 13 14 13 13 14 14 14 14 13 14 15 14 13 12 13 13 13 14 13 13 12 12 11 9 11 13 14 12 11 11 11 13 12 11 9 8 7 7 7 8 9 10 11 11 11 11
7 3 7 6 6 5 1 4 2 1 5 4 4 5 3 4 6 4 6 6 8 9 9 6 3 7 7 6 6 7 7 6 7 9 9 9 9 9 9 10 10 11 12 13 14 14 14 13 12 13 14 14 13 13 12 13 13 14 15 15 15 14 14 14 13 14 14 14 14 15 14 13 13 12 12 11 12 13 13 11 10 10 12 13 12 10 8 7 6 7 8 9 10 11 11 11 11
7 4 4 7 1 4 4 3 1 7 5 5 4 6 2 2 1 4 5 8 10 7 7 4 3 4 9 9 7 7 6 7 9 9 9 10 8 9 11 10 11 11 11 11 12 14 14 13 12 13 14 14 14 13 12 12 13 14 15 14 14 14 14 15 15 15 14 14 14 14 14 14 14 14 13 11 11 12 12 11 10 10 10 11 11 10 8 7 6 7 8 9 11 11 11 11 11
7 2 5 6 3 6 5 6 6 6 7 3 7 6 0 4 0 2 3 8 7 5 6 2 4 8 5 7 8 8 10 10 11 11 11 10 10 10 10 10 11 10 10 11 11 10 11 11 13 13 14 13 14 12 12 13 12 13 14 13 14 14 14 15 14 14 15 15 16 15 14 15 14 14 13 11 10 10 11 11 9 10 10 10 10 11 9 7 6 6 9 10 11 11 11 11 10
4 5 5 6 7 6 6 6 3 4 7 4 6 7 3 5 2 2 2 7 7 3 4 5 6 5 5 6 10 14 14 12 11 11 12 12 10 9 9 10 10 10 9 10 11 9 10 11 11 12 12 13 13 12 11 13 14 12 12 13 14 14 14 14 14 14 16 16 15 14 13 14 13 12 13 11 10 9 11 10 11 10 11 10 9 10 9 7 6 6 9 11 11 11 11 10 11
4 6 6 6 7 7 6 6 9 4 8 6 7 8 6 4 2 2 3 3 7 6 5 7 7 5 9 8 11 15 14 12 12 13 13 11 9 9 8 7 8 9 7 9 11 10 9 11 13 11 12 14 13 12 11 12 13 15 12 12 13 12 12 13 15 16 15 14 14 12 11 11 11 10 11 11 11 9 8 10 10 10 10 10 8 8 9 7 5 7 9 12 12 12 11 11 10
6 7 7 7 5 7 5 6 4 6 3 6 7 9 8 3 2 4 4 3 4 7 5 7 10 10 7 9 10 13 14 13 13 14 12 11 9 9 8 8 8 9 10 9 9 8 11 11 13 12 11 13 12 10 9 9 12 14 14 14 12 13 13 14 14 14 14 12 13 12 10 9 9 9 10 12 9 10 9 10 10 10 10 11 8 7 8 7 6 7 11 13 13 13 13 8 8
8 6 7 7 6 2 3 3 3 1 6 6 5 7 8 7 5 4 7 7 9 8 7 9 9 8 8 9 11 13 13 13 13 12 13 12 10 11 9 8 9 10 10 10 9 11 11 11 11 12 12 13 13 11 9 10 13 11 12 12 11 13 13 14 13 13 12 11 11 11 9 8 9 9 9 9 8 11 11 10 10 10 10 11 10 6 6 8 7 8 11 13 13 13 11 6 7
9 6 7 8 2 2 1 1 1 2 5 5 6 6 7 5 5 2 5 9 8 9 9 9 8 9 9 10 11 12 12 13 12 11 12 11 10 10 10 10 9 10 10 9 10 10 11 10 12 11 12 12 11 9 9 9 11 10 10 11 10 11 12 12 12 12 10 11 11 9 7 8 8 7 10 11 11 10 10 10 10 10 11 11 12 7 6 7 9 9 12 12 12 10 5 6 6
7 8 8 4 3 6 4 4 3 3 4 5 6 6 4 4 6 4 2 8 7 5 8 8 10 12 13 12 13 12 12 12 12 11 10 10 10 8 8 8 8 8 8 8 9 10 10 10 10 10 11 11 11 9 9 9 10 9 9 9 9 9 9 10 9 9 9 10 10 8 7 7 7 7 9 9 8 8 9 9 9 8 7 8 10 7 7 6 7 9 9 10 8 7 5 4 4
3 10 10 4 2 6 3 2 3 2 3 5 5 6 5 6 4 3 7 7 7 5 6 3 7 16 16 15 13 13 12 11 12 11 10 10 10 9 9 8 7 7 7 8 9 9 11 10 11 10 11 11 11 8 8 8 9 8 8 8 8 8 8 7 7 7 8 8 8 7 7 7 7 7 8 8 8 8 9 8 8 7 7 7 6 6 6 8 8 8 9 9 7 5 5 4 4
9 10 10 7 7 5 4 3 2 3 3 5 6 5 7 4 3 2 3 4 9 8 6 6 10 14 14 13 14 13 13 12 11 11 11 11 10 9 9 8 8 8 7 6 8 7 8 8 9 9 9 9 9 7 7 7 8 7 6 7 7 7 7 7 7 7 6 8 3 5 6 7 7 6 7 8 8 7 8 8 7 7 7 6 6 6 6 6 7 7 7 7 6 6 6 5 5
12 7 8 10 8 8 5 5 3 5 4 6 6 6 7 4 3 2 3 3 6 6 5 8 12 13 14 14 12 12 12 12 11 10 10 10 10 10 9 8 8 7 7 7 7 8 7 9 8 8 8 8 8 9 8 7 7 6 6 6 6 5 6 6 6 6 6 6 6 7 5 7 7 7 7 7 7 7 7 7 7 7 7 7 7 6 6 6 6 6 7 7 7 6 6 6 5
11 12 6 6 7 7 5 5 5 5 5 6 6 6 4 3 2 3 5 4 5 6 6 9 11 13 11 11 12 12 11 10 10 10 8 8 8 8 6 5 7 6 6 7 6 7 8 7 8 8 7 7 7 7 7 6 6 6 5 5 5 5 5 4 4 5 6 7 8 8 9 7 7 6 7 7 7 7 7 7 7 7 7 7 7 6 6 6 6 6 6 7 6 6 6 5 5
13 13 8 8 8 6 5 5 6 6 4 4 6 6 3 3 1 7 7 5 5 5 7 9 11 11 11 11 11 11 11 10 10 10 10 8 8 9 9 7 7 7 6 7 6 6 6 7 7 7 6 6 5 5 5 5 5 6 5 5 4 4 4 3 6 5 5 6 6 7 8 7 5 7 7 6 6 6 5 6 7 7 7 6 6 6 5 5 6 6 6 7 7 6 6 5 4
9 13 10 9 8 7 6 7 5 2 5 5 7 4 4 4 6 8 7 7 5 7 8 9 10 11 10 10 10 9 11 10 10 9 8 7 8 8 8 6 6 6 5 6 6 5 5 7 6 6 5 4 5 6 4 4 4 5 5 5 5 5 5 6 6 6 5 5 5 6 8 4 4 3 0 2 4 3 5 6 6 6 7 7 7 6 5 5 5 6 6 6 6 6 6 6 5
4 7 10 11 9 8 6 7 6 5 7 7 8 5 2 4 6 3 11 8 7 9 8 9 9 10 10 11 10 9 9 9 8 8 9 9 7 7 8 7 7 6 5 6 5 4 4 5 5 6 5 4 4 5 4 4 4 4 5 4 5 7 6 5 5 5 4 5 5 5 4 5 6 3 4 2 3 3 7 6 5 6 6 6 7 7 6 6 5 6 6 6 6 5 5 6 5
5 5 8 10 10 10 11 10 9 6 5 4 2 5 8 7 11 8 9 9 9 9 8 9 9 10 11 11 10 9 8 8 8 7 7 6 6 6 7 5 5 6 4 5 4 4 4 4 4 4 6 6 5 4 4 4 4 5 4 3 5 5 4 3 4 4 3 4 5 5 7 8 5 4 5 5 4 8 5 5 5 6 5 5 6 8 7 6 6 5 6 6 6 6 6 5 5
7 7 8 7 9 10 12 10 7 7 3 2 5 8 9 11 9 7 8 8 9 8 9 9 8 9 10 10 9 9 8 8 8 6 7 7 6 6 7 6 4 4 4 3 5 5 3 3 3 3 4 5 5 4 4 4 5 5 5 5 2 2 2 2 3 4 4 5 5 5 6 7 3 6 6 4 5 4 4 4 4 5 5 6 6 7 7 7 7 7 7 7 6 6 6 6 5
9 9 8 8 9 9 14 10 11 11 7 6 8 9 9 11 11 8 7 8 10 9 9 9 9 9 9 9 8 9 9 7 7 6 6 6 5 4 5 5 5 4 2 2 4 4 3 2 1 2 2 4 6 5 4 5 4 3 2 3 4 3 3 3 3 4 4 4 4 5 6 5 5 4 4 2 4 1 2 2 3 3 5 5 5 7 7 7 7 8 7 8 7 6 6 6 5
9 9 10 10 8 9 11 9 12 13 7 8 11 10 5 13 10 6 6 7 8 10 10 9 9 9 9 9 9 9 8 7 7 7 5 6 6 5 5 5 5 6 5 3 2 1 3 3 3 5 6 6 4 6 5 3 3 2 1 3 3 4 4 5 5 4 4 4 4 4 5 4 5 3 3 4 3 3 3 4 3 3 3 4 5 6 7 7 6 7 8 8 8 8 7 6 5
10 10 9 11 10 8 9 11 11 6 9 10 13 10 6 7 6 4 6 7 8 9 7 8 10 9 9 8 8 8 9 8 7 6 7 5 6 4 4 4 4 4 4 3 3 3 3 5 4 4 6 6 5 5 5 4 3 3 2 2 4 4 4 4 4 3 2 3 3 2 0 1 1 3 4 2 3 7 6 5 3 3 2 4 4 5 7 6 7 6 7 6 6 7 8 7 5
10 11 7 8 14 8 8 11 9 11 10 11 14 9 6 8 6 6 5 6 7 9 9 9 8 8 7 7 8 9 8 8 7 7 7 6 5 6 3 3 3 4 4 4 5 4 5 4 3 4 5 5 4 4 4 4 3 3 3 4 4 4 4 4 3 3 3 2 2 2 3 5 3 5 5 5 5 5 4 4 4 4 4 6 5 5 6 7 8 7 7 7 9 7 7 6 6
11 12 10 8 11 11 9 11 11 12 12 12 13 13 7 7 5 5 6 4 5 7 7 7 7 6 6 6 6 8 7 7 6 5 6 6 5 5 4 4 5 5 5 5 6 5 3 5 4 3 4 4 4 3 3 3 3 4 3 4 5 4 5 5 3 2 2 2 3 3 3 5 6 6 6 7 6 5 4 4 5 6 5 4 4 5 6 7 7 8 8 8 7 7 7 7 6
12 13 9 8 10 11 8 9 9 11 14 12 14 12 11 8 5 5 3 3 3 5 3 3 5 6 5 4 5 6 6 7 6 6 5 4 4 3 4 3 3 4 5 6 6 5 4 5 4 4 3 1 2 1 1 1 3 3 3 1 4 6 5 5 4 4 3 4 5 4 4 5 6 7 8 8 8 6 5 5 5 6 6 5 2 6 6 7 8 9 10 9 8 7 7 7 6
9 12 11 9 10 11 8 9 7 3 10 13 14 13 9 5 3 3 2 3 3 3 4 4 5 6 6 7 6 6 6 7 6 5 4 4 4 3 3 3 5 5 6 6 7 7 6 5 4 4 4 3 2 3 3 4 5 4 2 3 6 6 6 5 5 5 5 5 6 7 7 6 6 7 6 6 7 7 6 6 8 7 6 7 7 8 7 6 7 8 8 7 9 9 8 7 8
10 11 12 9 12 10 11 10 7 6 7 10 7 8 6 4 4 4 2 5 6 5 5 5 6 6 5 6 7 8 8 6 5 4 3 3 3 4 3 4 6 6 5 5 6 7 6 6 5 5 3 3 4 4 4 5 5 5 3 5 5 6 7 6 6 5 6 6 8 8 6 6 6 6 6 7 8 7 6 7 6 7 7 6 6 6 5 5 7 8 8 8 8 8 8 8 9
10 10 10 9 9 8 9 9 6 6 7 8 11 10 6 4 4 5 4 4 4 2 1 0 3 4 5 6 7 8 9 6 5 4 3 2 2 3 4 5 5 6 6 6 6 6 6 5 4 4 3 2 3 4 4 4 3 4 5 5 7 7 6 5 5 5 6 6 7 6 6 7 7 7 7 8 7 7 7 6 6 5 7 6 5 5 6 6 5 7 9 8 8 7 6 8 8
10 10 11 11 10 10 10 9 9 4 5 6 12 10 6 5 5 6 4 4 5 5 4 4 1 1 3 6 6 6 6 7 5 4 3 3 2 2 4 4 5 6 6 6 6 5 4 4 4 5 3 3 4 5 4 5 6 6 6 6 6 7 6 5 6 6 6 7 8 7 7 6 7 7 7 7 6 6 7 6 5 7 6 6 6 7 7 8 8 7 7 6 6 8 7 6 6
12 12 10 10 12 12 7 12 8 3 2 2 10 7 7 7 8 7 5 4 6 6 6 6 6 4 4 4 5 4 3 3 4 4 3 3 3 3 3 5 4 5 5 6 5 5 4 6 5 4 1 1 1 2 3 3 4 4 5 6 6 6 7 5 6 7 7 8 8 8 8 7 8 8 7 7 7 7 5 7 8 7 7 7 6 7 7 9 9 9 9 7 6 5 8 8 9
11 12 11 8 9 15 4 15 11 9 9 9 13 9 9 9 7 6 6 7 6 6 6 8 7 7 7 7 7 6 4 2 1 3 3 3 3 4 4 4 4 5 6 6 6 6 5 5 4 4 3 3 3 4 4 4 4 6 6 6 6 6 7 7 8 7 7 7 8 7 8 7 7 8 7 8 7 6 7 7 8 8 8 6 6 7 8 8 10 10 10 8 10 11 7 8 8
11 12 12 7 9 12 11 12 12 10 10 13 9 10 6 8 11 9 6 7 9 7 7 8 8 7 8 7 6 4 4 5 5 5 4 5 4 5 5 5 7 7 7 6 6 6 6 5 5 3 2 2 4 4 5 5 5 6 7 7 7 7 7 6 5 5 5 4 5 5 6 6 7 8 7 7 8 8 8 7 8 9 9 7 6 7 8 9 9 10 10 9 9 9 11 8 9
10 12 16 10 9 10 9 11 11 9 6 8 8 11 7 9 10 8 7 8 10 9 9 9 9 10 9 8 7 6 5 4 4 4 4 4 4 5 6 7 6 7 6 6 6 4 4 3 3 4 3 3 3 3 5 6 7 6 7 8 7 7 6 5 6 5 5 4 4 5 5 6 7 7 7 8 8 8 7 8 10 9 8 9 6 8 8 8 7 6 9 7 4 10 10 8 8
5 12 16 15 11 10 11 10 10 8 6 10 11 14 9 8 9 9 9 11 10 9 8 9 9 10 10 9 8 7 6 6 5 6 6 6 6 6 7 8 7 7 6 6 5 4 3 2 1 1 1 2 3 5 6 6 6 7 7 7 7 7 7 6 5 5 5 5 6 5 5 5 6 7 8 8 8 9 7 9 9 9 9 10 10 8 9 9 10 9 9 9 14 10 9 8 7
6 8 10 11 11 10 11 9 10 6 6 9 13 14 10 8 9 10 9 10 10 8 8 9 9 9 9 8 8 8 7 7 7 8 8 7 6 6 7 6 7 7 6 5 5 4 3 2 2 1 2 3 4 4 6 7 9 8 8 8 9 8 6 6 6 6 6 5 6 5 5 5 5 6 7 8 8 9 9 9 9 10 10 8 8 9 11 10 10 11 10 10 10 9 8 7 8
9 9 10 9 8 8 8 9 9 9 9 12 13 16 14 8 11 11 12 8 7 8 8 8 8 9 9 9 8 7 7 8 8 9 8 8 7 7 7 8 7 6 6 5 5 4 4 2 1 1 1 2 3 4 7 7 7 8 7 8 9 9 9 8 7 7 7 6 5 5 4 4 4 5 5 6 8 9 10 10 9 9 9 8 8 5 7 9 9 9 9 10 10 11 9 9 8
10 9 11 10 9 8 8 9 9 8 9 13 14 13 14 10 11 8 7 8 4 5 9 8 8 8 8 8 7 8 8 7 7 7 9 9 9 9 8 8 7 7 6 5 4 3 3 2 1 2 1 2 3 4 5 6 6 7 8 8 9 9 9 8 9 8 7 7 6 5 3 3 4 4 5 5 6 7 8 8 8 9 9 8 7 6 4 7 7 8 8 9 9 11 9 9 9
13 11 12 13 10 8 10 11 13 11 8 12 11 12 8 8 3 11 10 8 8 6 7 8 10 10 11 10 9 8 6 6 6 6 6 7 7 7 8 7 7 7 6 5 5 4 4 4 3 3 3 2 2 4 5 5 6 7 7 8 8 8 9 10 10 8 6 7 5 4 4 4 5 4 5 5 6 9 8 7 8 8 9 9 7 5 5 7 8 8 9 9 9 10 10 8 5
14 14 13 14 12 12 12 13 8 9 10 5 10 9 9 9 7 10 12 9 8 9 9 9 10 10 10 10 9 9 9 9 8 8 9 9 8 8 8 7 6 6 7 6 6 5 5 5 6 6 5 5 4 4 5 6 6 6 6 7 7 8 9 10 9 8 5 5 4 6 6 8 7 8 7 7 8 10 10 10 10 11 10 9 9 8 8 10 10 11 10 11 8 6 6 11 10
13 12 13 12 10 10 11 12 13 14 11 9 7 9 9 11 8 8 11 9 9 9 10 11 11 10 10 10 10 10 10 9 9 10 10 10 10 10 9 9 8 8 9 8 7 7 7 6 6 6 6 5 6 5 5 5 5 5 5 6 7 7 8 8 8 6 4 6 7 8 7 9 10 9 10 8 10 10 12 10 11 11 10 9 8 8 10 9 12 11 11 10 6 5 7 6 6
13 12 11 13 12 7 10 3 9 12 10 9 9 6 3 2 5 7 9 10 10 10 11 11 10 9 9 10 10 9 8 8 8 10 10 11 10 10 9 9 10 9 10 8 8 7 7 6 6 6 6 6 6 6 6 5 4 5 5 7 7 7 7 7 7 6 4 7 9 10 10 11 10 9 9 9 10 11 11 10 7 8 8 8 8 9 10 11 9 9 7 5 3 4 10 11 9
12 11 13 11 3 8 3 2 7 2 6 8 4 5 7 9 6 8 10 10 12 10 11 11 11 10 11 9 9 8 7 8 8 9 9 10 10 9 9 8 8 8 8 9 9 9 9 8 8 8 7 7 6 6 6 5 4 6 7 7 7 7 7 8 8 6 7 10 11 11 12 12 11 9 9 10 11 12 12 10 10 9 11 10 12 12 10 5 11 5 4 10 10 13 10 10 8
10 13 12 6 2 3 6 6 4 8 10 5 7 12 10 10 7 11 13 12 13 12 11 12 11 11 10 8 7 7 7 7 8 8 9 10 10 10 9 8 9 9 9 9 10 8 8 8 8 8 8 9 8 7 6 6 5 7 8 9 9 9 10 9 7 8 9 12 12 12 11 9 9 10 9 8 10 10 11 11 9 7 7 6 6 6 8 11 8 7 8 5 7 5 5 6 7
10 12 9 11 9 7 8 4 11 11 10 5 10 11 10 12 8 13 16 15 15 12 12 11 11 10 9 9 9 7 7 7 8 8 8 8 8 7 6 7 8 9 9 9 8 8 8 7 6 6 7 8 9 7 7 5 6 6 6 7 9 9 9 9 8 10 10 11 12 10 10 10 9 9 9 10 10 11 11 9 7 5 6 6 6 5 6 7 6 3 3 5 8 9 9 8 4
7 9 11 12 6 9 8 5 6 8 9 6 9 9 8 10 9 17 18 17 16 14 12 12 12 10 8 7 7 7 8 8 7 8 8 7 7 8 8 8 9 9 9 8 8 7 8 7 8 8 8 9 9 9 8 8 7 7 7 8 9 9 8 9 9 9 9 10 11 10 11 12 11 10 10 10 10 11 11 9 9 6 6 6 5 7 6 6 5 6 4 5 7 8 7 5 8
12 9 12 12 8 5 8 7 8 10 6 8 7 9 8 6 5 12 16 16 16 15 13 12 11 10 8 8 7 7 7 6 6 6 6 7 7 7 7 8 8 8 8 8 8 8 8 8 9 10 10 10 10 10 9 8 8 8 8 9 9 7 7 8 9 9 9 9 10 10 11 11 10 10 10 10 10 11 12 11 10 9 8 7 5 5 6 5 6 6 8 10 8 9 9 7 5
11 12 12 14 12 11 13 10 5 5 8 7 8 8 7 5 1 6 14 15 15 14 15 12 11 10 9 8 8 7 7 7 7 6 6 6 6 7 8 8 8 8 9 10 9 9 10 10 9 9 9 8 9 9 8 8 8 9 9 8 8 6 6 7 8 8 9 9 9 9 9 9 10 11 11 11 11 10 11 12 10 11 11 9 10 10 8 7 6 7 7 4 6 9 9 9 8
Wind_Direction
240 226 331 273 267 260 253 210 247 170 231 238 249 198 229 202 49 226 186 179 204 77 350 293 237 217 240 353 1 60 38 15 18 303 47 90 154 127 134 134 134 144 139 139 136 142 137 127 126 124 124 123 123 124 122 123 123 125 126 126 127 127 125 126 126 128 128 130 134 134 134 134 134 140 142 128 133 138 130 126 118 117 116 116 115 115 117 115 114 111 108 105 100 97 96 97 96
221 286 244 247 250 244 197 255 262 219 210 248 240 237 116 118 186 179 79 51 29 39 13 55 176 222 286 283 328 134 56 43 38 74 89 112 132 126 128 135 149 146 140 137 140 143 141 134 125 126 126 127 128 129 129 129 128 129 128 128 129 128 128 128 129 130 131 135 137 137 136 137 138 139 138 139 138 115 113 116 115 118 118 118 118 118 113 112 109 109 108 105 102 100 97 98 98
193 241 190 217 216 252 360 216 244 233 239 235 227 196 115 174 156 120 74 42 12 40 41 149 172 214 210 205 154 306 96 60 78 82 95 135 130 128 131 135 151 145 136 137 141 140 137 135 128 125 128 129 129 130 130 131 130 130 130 131 131 130 129 129 130 131 135 138 136 138 138 140 140 135 126 121 114 109 101 101 119 120 119 118 117 115 113 111 108 109 108 105 105 104 103 101 101
272 268 265 207 202 218 225 209 250 262 243 256 281 142 174 162 147 95 54 37 357 282 224 160 203 91 292 174 65 94 80 81 52 115 125 137 101 130 134 138 152 142 137 140 139 139 141 134 131 129 130 130 131 131 132 132 131 132 132 132 131 131 130 131 134 135 138 140 139 142 145 143 140 130 125 122 112 104 104 113 120 119 116 113 116 114 112 109 109 107 109 109 106 107 110 109 106
238 191 260 251 265 207 226 236 257 240 246 239 255 85 129 170 113 58 34 1 346 289 222 197 180 73 33 39 358 12 78 89 73 58 112 99 119 130 137 145 156 144 140 140 140 135 135 136 135 134 131 131 130 130 131 131 132 132 133 133 134 133 132 133 135 139 142 142 143 148 147 144 138 129 129 122 114 115 114 111 114 116 114 114 112 111 113 111 102 108 110 109 114 117 115 111 110
216 214 195 252 261 9 261 229 219 234 255 349 278 70 117 108 80 8 355 316 5 290 247 225 327 156 152 48 14 78 335 193 92 95 123 136 147 135 140 151 156 145 139 140 136 137 141 136 138 136 134 133 132 132 133 134 134 135 135 135 135 134 134 138 142 144 144 143 148 150 150 146 137 130 118 108 110 118 117 113 113 113 114 114 111 105 103 101 103 109 110 112 114 119 122 120 115
186 200 183 214 202 222 244 237 240 232 213 244 302 117 131 134 342 325 303 297 143 306 203 212 209 181 153 124 90 66 50 29 191 101 112 142 141 141 142 155 152 137 135 141 139 133 136 137 136 137 137 135 134 136 137 137 137 138 139 138 137 137 140 143 141 142 144 145 149 153 151 143 131 113 108 109 107 111 112 113 114 113 109 112 111 111 109 105 106 104 105 109 113 115 121 125 119
249 258 169 224 193 208 224 242 258 230 113 271 333 287 234 315 310 288 291 259 135 215 165 214 216 248 74 198 113 95 71 49 76 120 120 144 144 141 147 152 140 138 139 139 133 125 130 137 136 138 137 137 138 140 140 139 139 140 140 140 141 140 143 143 144 145 147 147 149 154 147 131 119 108 108 109 112 113 113 113 112 108 110 114 111 111 108 110 110 109 110 117 112 111 121 123 117
187 247 110 256 234 201 245 235 245 195 285 211 235 259 294 289 296 288 268 240 234 234 206 188 196 223 135 132 93 108 67 73 89 116 130 143 146 148 148 148 141 142 142 138 130 129 143 135 138 137 140 141 143 143 142 141 141 142 143 142 143 143 146 148 148 145 147 145 148 150 146 129 118 113 114 118 117 117 122 119 114 117 115 110 112 112 117 120 116 112 120 120 113 111 117 120 118
184 246 182 241 267 225 226 216 230 223 230 215 274 295 293 280 265 256 266 231 212 189 185 170 193 261 133 120 123 123 79 78 123 122 132 145 146 146 147 147 141 141 141 136 133 136 140 140 136 139 142 144 145 145 143 144 144 144 145 146 145 146 149 150 145 146 147 147 150 150 146 138 133 125 127 125 124 124 125 127 127 126 124 123 119 125 128 127 120 121 126 120 116 113 115 116 117
197 200 311 238 220 241 221 222 216 175 205 179 244 200 294 279 268 262 245 246 147 197 138 177 188 163 154 102 78 81 111 130 130 120 137 143 144 147 144 144 141 143 136 135 136 136 138 148 141 142 144 144 145 144 145 147 144 144 145 147 145 146 151 148 147 146 148 149 147 151 146 144 140 136 134 133 130 128 130 136 137 133 130 130 131 132 137 132 125 124 125 120 114 113 113 116 120
223 208 177 234 238 232 210 256 190 200 172 205 152 52 356 281 264 241 207 206 183 186 166 195 143 177 141 138 120 120 119 125 122 131 134 136 144 145 139 135 135 137 134 136 136 136 144 144 150 145 142 142 144 145 147 146 146 145 147 146 148 150 151 151 147 144 142 143 147 147 144 145 144 138 139 141 137 131 134 144 144 140 137 138 140 140 142 135 125 121 125 122 117 114 116 118 119
252 179 216 245 241 224 334 254 199 15 194 122 13 12 322 240 224 236 185 198 166 164 155 172 53 233 148 123 109 131 125 126 138 137 135 133 140 137 127 125 134 131 137 139 139 140 143 151 149 154 145 142 143 147 146 145 146 148 149 151 153 155 153 151 148 145 148 153 150 148 150 153 147 146 148 148 146 136 138 140 149 147 146 143 143 141 141 139 131 126 127 125 118 115 115 115 117
245 220 248 234 74 269 241 245 139 198 141 79 47 345 57 293 258 267 199 177 172 157 87 90 228 198 109 122 147 147 131 133 133 129 130 131 132 136 130 129 130 137 136 142 143 144 150 153 152 151 149 154 151 147 146 149 151 153 153 156 156 155 155 153 154 154 157 155 154 152 154 154 151 150 147 144 147 137 134 141 141 145 152 146 144 146 145 142 138 126 128 125 117 116 116 117 116
241 198 249 266 245 221 210 232 169 202 93 61 35 353 109 83 93 208 244 173 106 55 123 43 8 241 107 213 156 152 151 144 138 133 129 132 131 135 135 135 137 138 140 142 135 145 146 156 156 153 159 158 156 159 162 156 157 157 156 156 155 155 158 157 156 159 159 157 157 156 156 156 154 149 147 147 141 132 132 132 144 152 152 151 147 145 142 139 133 125 128 123 120 118 119 119 121
244 214 236 240 231 227 160 223 126 212 101 55 39 11 133 105 83 243 64 334 104 93 229 132 47 31 44 60 91 126 143 143 138 137 134 132 133 134 140 140 144 143 149 148 143 166 158 163 164 157 161 160 161 163 161 164 162 160 159 157 157 159 161 160 159 161 162 160 158 155 156 157 157 152 151 150 143 137 142 150 148 151 148 145 148 142 137 134 130 124 125 126 124 121 119 119 123
230 249 224 226 239 208 139 207 171 160 105 79 40 29 18 110 60 53 322 252 162 130 105 56 68 57 58 68 102 129 140 138 140 141 139 135 141 143 145 151 151 148 151 159 152 166 172 168 162 162 161 162 162 161 159 163 163 163 161 162 160 163 162 160 160 162 163 162 160 158 167 168 158 151 164 153 147 154 128 127 145 142 137 138 144 141 133 129 122 117 133 134 127 123 122 122 123
204 214 229 222 239 208 155 189 149 71 55 47 34 22 2 78 117 98 186 145 123 140 114 109 84 64 76 103 125 134 140 146 147 146 145 146 150 149 155 156 159 156 159 157 152 165 173 172 165 166 163 164 164 161 160 165 163 174 169 168 171 164 165 163 166 169 171 165 166 160 168 163 165 162 162 145 168 139 142 135 139 139 136 134 138 142 128 114 120 135 146 139 130 131 145 145 137
209 218 229 239 207 82 40 43 47 278 53 3 19 23 355 39 313 118 222 140 156 159 136 146 103 95 108 124 136 146 147 148 154 150 153 152 153 156 154 162 163 155 162 162 165 171 177 169 169 171 169 167 165 163 163 164 164 175 169 170 168 176 168 173 174 171 175 166 169 172 177 166 170 166 165 163 165 149 133 139 134 139 137 133 134 134 122 108 112 146 149 142 142 158 183 148 149
218 242 220 235 266 71 177 36 20 317 355 352 359 8 340 33 339 13 251 149 179 171 154 171 160 140 140 140 147 151 154 151 154 153 152 153 154 158 159 165 165 164 165 165 166 170 175 175 176 175 171 170 169 164 166 167 168 176 171 173 173 178 176 182 176 178 178 170 170 175 175 168 170 166 152 154 150 152 136 138 136 133 133 133 133 143 130 107 114 140 149 144 159 184 170 164 150
170 228 233 231 128 231 186 225 251 344 343 339 339 335 311 27 343 278 165 163 177 180 150 174 167 149 147 151 152 155 156 156 153 155 156 154 155 156 163 163 170 166 167 162 166 172 174 175 178 180 177 175 174 170 170 172 174 175 176 179 179 180 180 184 182 183 179 175 181 181 170 170 177 167 165 165 178 166 159 159 158 163 159 145 160 149 174 158 184 156 152 172 183 192 166 158 146
167 228 239 262 185 244 126 176 97 332 359 309 318 316 20 330 250 243 230 195 149 125 124 100 136 145 149 152 154 157 158 159 157 157 161 157 163 160 156 167 164 166 165 171 167 171 175 176 189 179 180 180 179 176 173 169 170 181 181 181 187 183 188 178 198 191 167 208 185 175 173 179 184 174 171 175 174 174 170 170 173 166 157 152 164 158 173 174 186 171 169 184 186 176 157 149 143
230 216 239 233 238 246 116 178 105 307 303 304 314 9 322 303 307 272 285 319 69 48 51 96 120 133 140 142 148 156 160 159 165 162 159 164 167 166 159 172 169 172 173 177 164 167 175 185 186 178 179 178 181 175 180 173 185 189 188 184 189 183 194 187 199 189 195 184 174 183 190 186 188 180 175 178 175 180 177 174 170 169 164 164 172 164 176 183 197 178 182 187 180 170 163 150 153
237 241 192 224 232 229 222 256 257 254 279 298 317 319 288 294 222 39 251 123 64 53 74 101 117 126 135 139 151 155 160 164 162 161 166 167 167 171 165 170 176 169 175 177 176 162 190 185 183 180 181 180 184 182 182 180 186 192 185 176 206 177 200 195 197 198 193 179 195 210 212 198 191 187 182 182 179 186 185 180 172 173 177 170 172 172 172 186 201 178 190 186 181 173 161 162 152
223 243 199 221 214 221 224 231 239 261 266 278 289 282 273 250 343 220 178 135 87 84 109 118 126 131 136 141 147 152 157 161 163 161 167 168 163 159 175 171 182 172 174 182 177 177 185 188 184 184 178 183 179 181 186 189 184 192 182 185 196 183 202 200 213 198 198 194 200 197 207 205 194 194 186 185 186 190 188 183 178 180 182 177 166 169 171 184 199 179 185 184 179 171 165 163 162
223 235 221 217 217 209 206 212 229 239 264 256 266 248 211 243 79 229 162 122 97 121 136 136 136 137 140 143 144 152 157 161 162 166 171 163 170 169 173 189 176 185 183 181 185 188 184 184 189 181 176 183 172 183 191 195 180 187 191 192 192 186 214 201 213 216 218 204 199 207 204 203 203 196 189 186 186 186 190 190 189 178 182 172 176 160 174 186 194 180 185 181 180 175 174 157 161
189 222 225 227 222 216 196 233 233 220 256 252 253 229 175 162 219 163 181 136 141 160 152 149 148 142 142 144 147 153 157 163 169 162 165 170 168 182 184 187 189 197 188 176 185 194 193 187 188 183 174 165 176 189 190 188 198 204 201 198 193 201 201 195 209 213 211 222 217 212 215 191 234 207 237 215 194 182 197 190 188 177 184 176 179 161 173 190 191 179 184 183 180 186 171 158 184
239 220 222 231 234 227 220 227 236 230 220 232 243 236 212 182 228 171 153 154 173 171 165 160 154 143 145 144 147 152 159 161 164 165 174 171 174 183 179 193 186 193 195 188 189 186 189 198 192 186 174 165 190 193 189 200 197 206 202 216 199 210 195 192 205 220 226 232 232 223 276 224 192 156 203 223 223 185 224 195 187 188 186 180 179 171 172 186 189 176 185 189 181 188 171 173 177
190 203 211 215 216 221 209 217 212 199 204 214 222 210 200 179 209 119 132 152 173 178 171 170 153 146 146 145 145 151 158 158 161 177 174 180 172 185 188 185 187 197 183 189 177 192 186 196 181 189 171 168 178 175 184 206 197 193 207 237 232 213 191 182 212 220 229 239 246 240 223 230 161 162 212 229 219 217 205 196 200 197 185 185 182 178 177 180 185 173 188 189 187 188 183 178 182
216 210 245 181 200 214 194 203 189 201 158 210 195 210 184 187 171 141 142 163 175 177 180 177 163 156 149 150 148 148 145 156 166 173 174 178 180 183 192 176 192 211 177 183 199 186 196 178 191 191 185 173 174 148 173 202 197 203 209 184 188 224 207 226 226 231 231 245 241 243 245 236 156 176 202 203 232 230 202 202 203 201 191 181 181 177 186 186 187 187 187 191 193 195 188 179 187
204 200 230 235 195 206 167 188 174 207 135 204 217 231 178 179 159 140 155 173 186 194 184 176 166 164 153 152 152 145 147 158 158 171 174 179 178 181 193 172 178 208 196 167 193 206 175 161 170 211 199 213 190 173 163 208 209 184 212 194 185 198 220 228 227 235 242 250 257 259 255 249 158 183 176 220 206 275 284 220 220 210 185 181 188 190 193 188 188 190 192 197 191 205 197 183 187
208 185 207 221 226 147 148 173 173 196 150 196 201 225 194 169 131 139 169 186 207 219 191 175 176 168 158 153 153 146 145 146 153 165 177 186 184 183 188 188 173 188 198 156 156 165 183 181 189 224 219 216 193 184 160 162 204 94 120 212 198 213 221 219 224 226 238 250 256 268 282 338 3 113 188 224 197 211 210 200 149 240 232 193 202 185 199 189 187 195 194 198 190 199 196 185 184
199 214 195 200 213 154 162 169 184 221 142 178 208 206 185 150 91 119 167 184 198 218 189 186 183 166 158 156 154 145 142 147 157 168 176 187 185 192 182 192 170 182 186 150 148 164 190 164 194 210 207 219 206 192 203 185 197 155 146 185 229 224 231 235 234 244 250 252 258 262 351 37 202 141 221 177 185 214 213 196 197 182 215 220 214 191 195 185 182 194 193 190 208 202 200 186 178
198 203 222 195 205 171 178 143 178 179 198 172 199 245 205 100 118 101 147 171 185 203 193 185 185 181 164 165 161 149 145 149 157 166 168 186 179 187 174 159 159 161 137 157 151 167 181 165 183 213 219 220 200 150 148 158 176 192 180 221 233 242 240 247 258 250 241 250 244 226 185 191 190 157 203 203 224 218 216 206 204 188 184 215 208 203 200 189 184 183 189 186 207 205 206 184 177
185 186 208 177 210 203 149 172 150 179 195 189 182 219 182 169 127 112 105 137 183 188 186 184 186 183 174 169 164 154 143 141 135 148 161 184 185 180 187 176 157 154 152 150 144 158 167 150 168 185 223 234 224 224 234 232 231 234 229 241 251 245 234 233 242 256 266 276 266 241 201 209 200 204 211 218 217 216 215 219 223 199 191 197 218 219 206 203 189 179 186 184 192 204 208 190 178
194 189 192 183 196 194 194 132 141 186 179 194 186 201 205 177 132 87 97 106 188 175 144 188 200 192 178 170 151 154 146 132 125 126 149 179 188 171 171 148 114 124 135 138 146 145 147 146 163 159 203 194 87 145 172 207 255 226 230 266 252 236 235 231 226 238 228 225 220 225 216 221 206 207 216 217 221 206 208 218 227 219 186 171 196 246 214 210 190 176 183 183 182 187 201 192 178
185 192 198 191 195 188 183 126 139 194 182 197 183 205 197 126 76 61 66 135 182 194 189 220 201 204 200 178 160 148 140 117 103 121 160 183 179 144 110 109 124 118 125 135 142 147 149 144 149 172 166 185 172 136 158 187 220 210 199 200 234 234 227 221 225 230 229 222 225 221 218 216 221 221 224 226 233 221 199 225 214 202 182 177 179 219 211 216 190 175 168 171 175 186 181 189 178
192 194 202 190 204 181 171 155 152 167 240 163 187 177 161 115 91 60 78 183 183 200 210 225 232 208 196 177 168 163 125 128 144 149 168 192 174 128 125 114 118 126 124 131 138 138 144 146 151 121 130 206 229 217 200 196 206 215 197 214 217 232 227 222 220 212 220 226 224 224 209 217 226 228 227 230 230 226 213 208 203 196 198 194 190 191 177 187 187 177 169 179 193 188 186 176 184
200 205 196 199 196 146 128 134 156 174 241 164 181 188 152 123 98 93 83 94 93 89 32 89 263 234 194 170 167 159 145 146 155 155 173 198 187 153 130 111 114 112 121 116 110 139 150 156 154 153 175 199 175 163 178 230 205 212 229 237 232 234 230 234 236 223 220 228 228 223 221 224 228 230 223 227 236 222 216 211 203 196 209 188 165 166 170 173 178 167 166 170 183 194 189 185 170
204 204 199 199 186 164 169 159 161 170 260 171 183 181 141 129 127 110 94 95 107 99 100 101 66 65 185 163 155 156 161 158 167 166 195 200 153 106 116 118 119 123 122 124 122 124 128 127 143 145 139 220 189 194 210 178 185 200 231 240 236 239 242 220 220 219 225 225 236 226 221 225 225 225 226 225 226 226 211 208 212 197 206 195 164 167 179 181 184 180 169 161 171 185 184 206 195
208 212 200 203 182 188 202 158 152 147 169 274 165 177 164 172 163 151 122 133 137 135 123 104 92 117 141 121 109 100 127 160 185 154 194 212 173 154 126 113 117 118 122 126 127 118 126 135 142 158 180 245 206 172 211 211 192 197 215 222 231 237 246 240 219 216 219 232 239 232 222 214 225 228 227 224 218 217 208 217 217 202 199 187 179 175 180 191 186 186 183 168 170 193 197 188 196
196 214 213 201 170 192 87 143 157 179 182 198 196 189 193 160 166 154 141 156 130 126 117 94 95 89 89 87 78 74 73 50 66 116 141 139 145 128 129 125 117 114 108 94 95 107 108 111 125 131 158 191 193 201 195 178 191 210 207 210 210 214 225 218 221 219 215 223 230 234 234 222 226 228 220 220 212 206 209 212 211 199 202 187 186 179 191 193 191 187 185 183 181 203 222 193 197
200 194 214 203 184 189 177 168 187 195 211 172 221 228 171 165 174 159 157 154 131 121 103 98 94 90 86 86 88 86 96 113 111 128 132 137 138 135 124 105 92 91 86 96 102 106 105 106 104 127 157 212 196 207 203 199 205 217 218 228 229 226 228 219 223 228 237 223 222 232 235 228 229 218 216 212 216 214 209 205 207 204 198 184 188 183 192 193 193 192 179 197 194 198 208 200 194
212 175 189 200 194 189 187 194 201 210 83 115 204 227 225 177 173 144 153 161 134 125 104 91 87 87 89 91 85 77 78 88 106 98 106 105 118 119 106 97 90 85 83 86 88 88 89 107 142 166 192 223 253 241 215 216 220 216 227 235 237 238 234 236 221 222 222 233 231 235 241 231 227 219 212 207 211 218 209 209 212 209 198 187 192 196 193 194 194 185 197 155 204 227 193 199 192
196 148 186 198 199 198 201 204 205 232 195 189 192 207 239 197 144 149 169 162 147 122 105 89 81 80 82 88 82 77 76 71 72 84 74 74 80 78 81 84 85 86 87 87 86 97 100 109 141 136 201 201 208 230 231 219 226 224 218 227 234 244 249 244 241 231 232 223 227 231 238 236 226 220 215 211 213 219 213 215 212 207 207 191 208 196 197 189 191 191 196 166 210 199 190 198 193
145 142 184 198 202 210 214 211 217 190 213 216 188 191 219 185 152 170 186 184 155 125 103 83 74 72 74 77 76 78 77 79 80 77 75 70 68 76 86 83 79 83 89 101 108 117 131 152 146 201 208 227 212 206 231 235 228 227 229 227 238 245 247 252 250 246 244 242 244 237 242 240 232 221 216 212 209 216 219 220 216 214 213 204 197 191 197 191 197 197 196 194 196 193 189 195 198
122 172 170 175 191 202 212 233 223 206 218 222 192 185 219 197 177 174 183 173 137 125 107 89 83 81 79 74 77 68 70 68 70 79 80 84 84 79 69 70 72 78 82 81 82 81 93 100 105 217 256 288 280 245 222 230 234 236 242 241 240 243 246 244 244 244 237 236 244 241 236 239 238 239 234 230 222 218 218 221 222 220 214 198 199 193 180 195 195 198 198 201 199 200 199 191 197
183 186 193 172 189 189 201 213 225 221 217 216 204 190 211 239 171 160 98 106 109 119 111 105 97 90 83 81 80 78 75 74 80 79 78 73 74 67 65 61 54 52 51 53 68 65 78 98 91 352 221 228 257 252 244 242 245 243 244 246 246 247 249 254 254 248 243 241 234 243 250 244 252 245 228 235 235 224 219 220 223 230 224 211 188 176 189 204 188 198 199 204 203 203 207 198 191
206 195 191 188 174 184 197 198 203 212 214 204 165 187 198 231 90 133 132 121 102 91 107 112 109 98 92 84 78 73 73 70 64 72 72 66 60 60 59 55 52 43 39 37 34 17 9 358 343 308 326 346 282 276 272 261 249 243 242 248 253 254 255 253 250 252 246 251 236 234 222 223 228 246 244 222 217 224 224 216 217 221 221 213 178 173 202 178 187 201 199 202 207 202 203 196 193
203 201 191 191 184 186 199 195 199 206 201 83 173 165 214 122 116 118 129 104 100 106 103 107 103 99 93 89 83 77 67 58 60 64 65 61 56 57 56 57 54 47 38 37 37 29 21 11 3 357 340 343 318 289 270 262 257 256 254 255 254 251 249 249 251 241 226 241 243 226 214 223 224 225 215 202 213 213 219 222 218 218 218 212 169 185 196 191 199 199 200 201 204 196 212 208 207
204 208 203 205 198 189 192 195 193 195 187 139 119 172 190 194 131 141 117 118 114 112 121 111 107 106 102 93 84 76 69 61 59 63 61 57 54 48 43 38 39 40 39 37 32 31 24 20 5 351 338 322 317 312 292 273 278 275 266 251 251 254 254 251 249 249 224 229 231 233 223 225 225 216 209 195 205 206 212 216 221 221 218 203 171 194 200 200 200 196 198 194 195 197 212 222 192
200 205 210 212 216 183 211 210 208 193 183 161 177 188 21 125 109 126 132 128 132 123 118 119 110 106 98 86 78 68 61 57 56 63 61 56 52 49 42 39 37 35 38 36 34 29 22 16 359 342 326 318 310 310 301 317 276 273 279 266 262 262 269 281 276 261 233 226 229 226 226 226 229 216 209 203 204 214 213 214 221 235 225 203 176 200 194 195 206 210 194 138 154 217 222 197 213
180 204 208 206 255 209 116 105 40 54 164 189 130 169 124 114 149 145 154 151 130 134 127 116 108 97 84 76 79 73 70 60 56 54 56 57 54 48 47 41 41 38 33 27 23 23 22 17 11 356 350 338 329 316 302 285 292 277 263 261 256 242 233 232 240 242 230 236 233 229 225 224 223 216 210 204 205 211 212 201 208 212 224 207 185 197 190 173 206 203 215 177 187 211 198 196 193
165 203 193 129 19 297 195 179 151 188 199 167 179 188 166 174 176 170 165 161 146 142 131 119 114 100 93 96 85 79 75 73 67 59 53 58 56 47 41 41 37 32 26 25 24 21 16 13 10 354 353 347 341 336 324 311 266 251 262 261 255 249 245 237 229 224 227 235 231 229 233 227 219 215 215 207 207 208 211 207 208 196 220 203 196 196 195 203 161 186 216 184 203 194 176 211 202
213 201 170 186 179 195 205 213 180 191 206 170 190 203 195 201 159 164 179 170 152 140 136 124 113 107 110 107 98 89 81 70 56 54 54 51 50 37 27 21 25 24 22 19 14 12 11 7 359 357 356 350 343 340 337 317 305 296 287 283 276 265 252 244 228 229 227 232 235 233 231 230 223 219 218 206 200 205 205 203 197 197 201 208 218 188 201 221 176 186 177 211 199 195 190 184 178
258 222 179 208 210 202 184 199 186 198 199 156 178 189 207 221 153 185 173 175 155 145 140 129 117 116 114 105 97 84 68 60 59 62 61 53 39 33 26 20 23 23 18 16 14 8 8 6 0 0 356 356 353 346 340 333 331 313 301 293 286 276 275 267 243 236 232 235 240 233 230 230 222 215 217 209 202 202 205 194 193 177 202 210 193 206 200 215 180 188 231 238 210 193 185 182 186
185 201 194 187 220 207 201 186 206 202 193 190 173 186 214 175 103 169 169 164 149 145 129 121 115 109 102 98 92 83 73 73 71 67 62 55 48 39 37 33 31 30 28 23 20 14 11 11 6 8 2 356 353 348 339 337 327 319 313 301 300 296 278 270 258 238 235 233 242 236 230 226 217 212 216 212 208 203 205 200 183 184 179 172 181 196 204 196 209 204 181 207 190 204 191 168 156
191 198 195 187 192 186 195 184 206 234 200 190 173 188 163 77 265 156 154 143 140 132 121 117 117 114 109 100 95 96 87 71 67 63 57 51 43 44 43 39 34 32 27 24 22 19 15 14 10 5 3 358 350 347 338 333 329 321 316 311 311 305 283 268 261 245 237 240 242 242 233 229 221 215 213 212 204 200 208 205 188 181 187 177 187 188 187 195 201 196 198 212 208 193 203 175 183